Погода в Порту-Сегуру

Бразилия     16°27′04″S   39°03′53″W
В апреле 2022 года жителям России запретили посещать сайт meteo.paraplan.net по решению Генеральной прокуратуры. Аудитория сайта уменьшилась в 10 раз. Владельцы сайта не видят смысла в поддержке погодного сервера в таких условиях. Сайт будет закрыт в октябре.
темп.,
°C
ветер,
м/с
пор.,
м/с
влажн.,
%
обл.,
%
осадки,
мм/ч
давл.,
гПа
погр.,
м
25 сентября, вс
вс2500:00+23ююв91088100 1.7 1018778
03:00+23ююв91089100 3.9 1017775
06:00+23ююв101188100 1.8 1018768
09:00+23ююв101188100 3.1 1020770
12:00+23ююв91086100 1.1 1019792
15:00+23ююв8886100 2.2 1017687
18:00+23ююв898699 0.6 1018686
21:00+24юв8885100 1.1 1019727
26 сентября, пн
пн2600:00+23юв898894 1.3 1018682
03:00+23юв7889100 4.3 1016593
06:00+23юв6890100 5.4 1018573
09:00+24вюв678517 10.6 1020501
12:00+25в447614 1.0 1018529
15:00+25в45775 1.1 1016550
18:00+25всв34822 0.1 1017448
21:00+24с23830 0.4 1019210
27 сентября, вт
вт2700:00+23ссз338738 0.3 1018184
03:00+22зсз22884 0.4 1016141
06:00+22з22885 0.2 1018146
09:00+23юв118331 0.2 1020203
12:00+24в45829 0.1 1018391
15:00+25св66791 0.1 1016586
18:00+24св46820 0.0 1017476
21:00+24всв46840 0.1 1018474
28 сентября, ср
ср2800:00+24ссв47830 0.4 1017458
03:00+24св46840 0.4 1015509
06:00+23ссв35843 0.8 1017333
09:00+25св56770 1.0 1018722
12:00+24св67800 0.0 1017554
15:00+24св67800 0.0 1014532
18:00+24св57830 0.0 1015490
21:00+24св67855 0.0 1017612
29 сентября, чт
чт2900:00+24св688482 0.1 1016618
03:00+24ссв568353 0.1 1015652
06:00+23с45861 0.0 1016410
09:00+24св56781 0.0 1017683
12:00+24св88790 0.0 1015491
15:00+24св911840 0.0 1013497
18:00+24св710860 0.0 1015492
21:00+24св79880 0.0 1016568